SWR543 LSZH-OMDB

Flight info

Callsign SWR543
Flight time N/A
Altitude 35000
Route DEGES Z2 XEBIX L607 ELMEM N606 GIRIS DCT NIVAS DCT PEVAL DCT ZDA DCT TIKSA DCT PETAK DCT PINDO DCT AKINA/N0488F370 DCT VANZA DCT LAKTO L560 SERMA L550 KARIK B411 DEESA Y415 LOTOK P559 VUTEB
Aircraft B77W/H-SDE1E2E3FGHIJ2J3J4J5M1RWXY/LB1D1

Departure

Time 2026-02-18 15:19
Airport Zürich Airport (LSZH)

Arrival

Time N/A
Airport Dubai International Airport (OMDB)
Time Latitude Longitude Altitude Speed Heading
2026-02-18 14:52 47.46039 8.55527 1402 ft 0 kts
2026-02-18 15:06 47.46035 8.55526 1411 ft 2 kts
2026-02-18 15:06 47.46017 8.55524 1405 ft 3 kts
2026-02-18 15:07 47.45997 8.55520 1409 ft 3 kts
2026-02-18 15:07 47.45977 8.55516 1409 ft 3 kts 357°
2026-02-18 15:07 47.45965 8.55516 1411 ft 3 kts 292°
2026-02-18 15:07 47.45963 8.55528 1411 ft 2 kts 276°
2026-02-18 15:08 47.45961 8.55557 1408 ft 3 kts 276°
2026-02-18 15:08 47.45960 8.55576 1411 ft 1 kts 276°
2026-02-18 15:10 47.45960 8.55570 1411 ft 4 kts 276°
2026-02-18 15:10 47.45967 8.55474 1410 ft 11 kts 276°
2026-02-18 15:10 47.45974 8.55366 1401 ft 11 kts 276°
2026-02-18 15:11 47.45981 8.55255 1401 ft 11 kts 275°
2026-02-18 15:11 47.45989 8.55137 1397 ft 12 kts 275°
2026-02-18 15:11 47.45997 8.55019 1401 ft 12 kts 277°
2026-02-18 15:11 47.46042 8.54925 1405 ft 12 kts 326°
2026-02-18 15:12 47.46114 8.54873 1410 ft 12 kts 335°
2026-02-18 15:12 47.46188 8.54824 1410 ft 12 kts 336°
2026-02-18 15:12 47.46261 8.54775 1409 ft 12 kts 335°
2026-02-18 15:12 47.46335 8.54724 1408 ft 12 kts 335°
2026-02-18 15:13 47.46487 8.54619 1407 ft 12 kts 334°
2026-02-18 15:13 47.46563 8.54566 1403 ft 12 kts 335°
2026-02-18 15:13 47.46639 8.54513 1408 ft 12 kts 335°
2026-02-18 15:14 47.46715 8.54460 1409 ft 12 kts 336°
2026-02-18 15:14 47.46794 8.54416 1406 ft 13 kts 339°
2026-02-18 15:14 47.46883 8.54359 1409 ft 15 kts 334°
2026-02-18 15:14 47.46989 8.54288 1411 ft 20 kts 335°
2026-02-18 15:15 47.47128 8.54191 1414 ft 23 kts 335°
2026-02-18 15:15 47.47276 8.54090 1411 ft 23 kts 335°
2026-02-18 15:15 47.47423 8.53987 1408 ft 23 kts 335°
2026-02-18 15:15 47.47543 8.53906 1408 ft 6 kts 335°
2026-02-18 15:16 47.47549 8.53902 1409 ft 0 kts 335°
2026-02-18 15:16 47.47573 8.53881 1411 ft 11 kts 327°
2026-02-18 15:16 47.47609 8.53769 1406 ft 13 kts 268°
2026-02-18 15:17 47.47493 8.53645 1410 ft 6 kts 154°
2026-02-18 15:17 47.47472 8.53660 1407 ft 0 kts 155°
2026-02-18 15:18 47.47465 8.53665 1406 ft 12 kts 155°
2026-02-18 15:18 47.47094 8.53921 1408 ft 104 kts 155°
2026-02-18 15:18 47.46177 8.54552 1414 ft 183 kts 155°
2026-02-18 15:19 47.44958 8.55389 2040 ft 190 kts 155°
2026-02-18 15:19 47.43800 8.56291 3047 ft 188 kts 139°
2026-02-18 15:19 47.42993 8.57924 3438 ft 213 kts 114°
2026-02-18 15:19 47.42750 8.60220 3698 ft 243 kts 85°
2026-02-18 15:20 47.43375 8.62632 4133 ft 264 kts 53°
2026-02-18 15:20 47.44685 8.64640 4604 ft 280 kts 42°
2026-02-18 15:20 47.45884 8.66960 5083 ft 293 kts 68°
2026-02-18 15:20 47.46341 8.69909 5748 ft 297 kts 90°
2026-02-18 15:21 47.46524 8.76197 7260 ft 310 kts 90°
2026-02-18 15:21 47.46623 8.79337 8166 ft 310 kts 88°
2026-02-18 15:21 47.46703 8.82531 9009 ft 312 kts 93°
2026-02-18 15:22 47.46387 8.85728 9706 ft 318 kts 104°
2026-02-18 15:22 47.45869 8.88937 10412 ft 325 kts 105°
2026-02-18 15:22 47.45318 8.92276 10696 ft 348 kts 104°
2026-02-18 15:22 47.44759 8.95896 10912 ft 374 kts 103°
2026-02-18 15:23 47.44192 8.99776 11178 ft 397 kts 103°
2026-02-18 15:23 47.43614 9.03841 11848 ft 408 kts 102°
2026-02-18 15:23 47.43032 9.07986 12708 ft 414 kts 102°
2026-02-18 15:23 47.42441 9.12178 13710 ft 418 kts 102°
2026-02-18 15:24 47.41850 9.16344 14577 ft 422 kts 102°
2026-02-18 15:24 47.41409 9.20647 15201 ft 428 kts 90°
2026-02-18 15:24 47.41818 9.25003 15792 ft 431 kts 74°
2026-02-18 15:24 47.42566 9.29329 16486 ft 440 kts 73°
2026-02-18 15:25 47.44024 9.38224 18194 ft 449 kts 75°
2026-02-18 15:25 47.44719 9.42763 18898 ft 455 kts 75°
2026-02-18 15:25 47.45407 9.47353 19553 ft 461 kts 75°
2026-02-18 15:26 47.46099 9.52004 20260 ft 466 kts 75°
2026-02-18 15:26 47.46734 9.56735 20913 ft 473 kts 79°
2026-02-18 15:26 47.47054 9.61614 21569 ft 480 kts 85°
2026-02-18 15:26 47.47051 9.66524 22213 ft 487 kts 92°
2026-02-18 15:27 47.46780 9.71551 22791 ft 494 kts 94°
2026-02-18 15:27 47.46460 9.76644 23383 ft 500 kts 94°
2026-02-18 15:27 47.46132 9.81797 23905 ft 506 kts 94°
2026-02-18 15:27 47.45814 9.86990 24445 ft 509 kts 93°
2026-02-18 15:28 47.45506 9.92229 25004 ft 512 kts 93°
2026-02-18 15:28 47.45205 9.97493 25534 ft 516 kts 92°
2026-02-18 15:28 47.44919 10.02528 25997 ft 520 kts 92°
2026-02-18 15:28 47.44717 10.06066 26318 ft 523 kts 92°
2026-02-18 15:29 47.44080 10.16895 27215 ft 533 kts 93°
2026-02-18 15:29 47.43555 10.22359 27696 ft 538 kts 99°
2026-02-18 15:29 47.42800 10.27787 28147 ft 542 kts 100°
2026-02-18 15:30 47.42008 10.33247 28600 ft 545 kts 100°
2026-02-18 15:30 47.41233 10.38740 28990 ft 545 kts 101°
2026-02-18 15:30 47.39966 10.44036 29176 ft 553 kts 118°
2026-02-18 15:30 47.37755 10.48698 29400 ft 556 kts 135°
2026-02-18 15:31 47.34864 10.52421 29778 ft 549 kts 151°
2026-02-18 15:31 47.31531 10.55057 30168 ft 541 kts 160°
2026-02-18 15:31 47.28134 10.57484 30568 ft 543 kts 159°
2026-02-18 15:31 47.24783 10.60035 30923 ft 543 kts 157°
2026-02-18 15:32 47.21489 10.62640 31355 ft 544 kts 157°
2026-02-18 15:32 47.18164 10.65271 31838 ft 541 kts 159°
2026-02-18 15:32 47.14754 10.67604 32261 ft 536 kts 165°
2026-02-18 15:32 47.11260 10.69491 32565 ft 534 kts 168°
2026-02-18 15:33 47.04287 10.73103 33599 ft 528 kts 168°
2026-02-18 15:33 47.00840 10.74978 34066 ft 528 kts 167°
2026-02-18 15:33 46.97402 10.76918 34333 ft 531 kts 166°
2026-02-18 15:34 46.93959 10.78897 34655 ft 531 kts 166°
2026-02-18 15:34 46.90522 10.80873 34902 ft 531 kts 166°
2026-02-18 15:34 46.87064 10.82837 34967 ft 534 kts 166°
2026-02-18 15:35 46.80234 10.87033 35014 ft 535 kts 158°
2026-02-18 15:35 46.74151 10.93361 34982 ft 542 kts 142°
2026-02-18 15:36 46.69138 11.01255 34993 ft 544 kts 134°
2026-02-18 15:36 46.64189 11.09572 35063 ft 543 kts 134°
2026-02-18 15:37 46.56718 11.21871 35039 ft 544 kts 135°
2026-02-18 15:37 46.51647 11.30080 35052 ft 548 kts 135°
2026-02-18 15:38 46.46539 11.38320 35075 ft 551 kts 135°
2026-02-18 15:38 46.41390 11.46612 35050 ft 554 kts 135°
2026-02-18 15:39 46.36238 11.54900 35037 ft 552 kts 135°
2026-02-18 15:39 46.31100 11.63135 35060 ft 549 kts 135°
2026-02-18 15:40 46.25981 11.71311 35062 ft 547 kts 135°
2026-02-18 15:40 46.20901 11.79399 35071 ft 546 kts 135°
2026-02-18 15:41 46.13242 11.91547 35078 ft 545 kts 136°
2026-02-18 15:42 46.08136 11.99617 35091 ft 545 kts 135°
2026-02-18 15:42 46.03162 12.07457 35098 ft 546 kts 135°
2026-02-18 15:43 45.98010 12.15553 35094 ft 548 kts 135°
2026-02-18 15:43 45.92888 12.23583 35103 ft 549 kts 135°
2026-02-18 15:44 45.87747 12.31692 35109 ft 549 kts 134°
2026-02-18 15:44 45.82761 12.40000 35110 ft 550 kts 132°
2026-02-18 15:45 45.75312 12.52520 35116 ft 550 kts 133°
2026-02-18 15:45 45.70301 12.60823 35108 ft 550 kts 133°
2026-02-18 15:46 45.62755 12.73239 35090 ft 551 kts 133°
2026-02-18 15:47 45.57720 12.81501 35101 ft 551 kts 133°
2026-02-18 15:47 45.52716 12.89691 35096 ft 551 kts 133°
2026-02-18 15:48 45.47667 12.97930 35097 ft 552 kts 133°
2026-02-18 15:48 45.42697 13.06016 35092 ft 552 kts 133°
2026-02-18 15:49 45.35105 13.18327 35079 ft 551 kts 133°
2026-02-18 15:49 45.30068 13.26565 35101 ft 551 kts 130°
2026-02-18 15:50 45.25298 13.35101 35101 ft 552 kts 129°
2026-02-18 15:50 45.20601 13.43637 35099 ft 552 kts 129°
2026-02-18 15:51 45.16247 13.51493 35068 ft 552 kts 129°
2026-02-18 15:51 45.11479 13.60023 35100 ft 552 kts 129°
2026-02-18 15:52 45.06695 13.68538 35095 ft 552 kts 129°
2026-02-18 15:52 45.01910 13.77031 35099 ft 552 kts 129°
2026-02-18 15:53 44.94737 13.89724 35130 ft 552 kts 129°
2026-02-18 15:54 44.89971 13.98126 35101 ft 551 kts 130°
2026-02-18 15:54 44.85246 14.06432 35101 ft 550 kts 130°
2026-02-18 15:55 44.80484 14.14779 35108 ft 550 kts 130°
2026-02-18 15:55 44.75680 14.23175 35116 ft 550 kts 130°
2026-02-18 15:56 44.70869 14.31557 35116 ft 551 kts 130°
2026-02-18 15:56 44.66046 14.39936 35086 ft 551 kts 130°
2026-02-18 15:57 44.58807 14.52466 35118 ft 551 kts 130°
2026-02-18 15:57 44.53961 14.60824 35121 ft 551 kts 130°
2026-02-18 15:58 44.49108 14.69171 35121 ft 552 kts 130°
2026-02-18 15:58 44.44252 14.77496 35123 ft 552 kts 130°
2026-02-18 15:59 44.39394 14.85802 35119 ft 551 kts 130°
2026-02-18 15:59 44.34539 14.94079 35125 ft 550 kts 130°
2026-02-18 16:00 44.29789 15.02153 35131 ft 550 kts 130°
2026-02-18 16:00 44.24953 15.10353 35136 ft 550 kts 130°
2026-02-18 16:01 44.17640 15.22707 35113 ft 551 kts 130°
2026-02-18 16:02 44.12766 15.30914 35112 ft 550 kts 130°
2026-02-18 16:02 44.07939 15.39195 35123 ft 550 kts 128°
2026-02-18 16:03 44.03358 15.47724 35120 ft 551 kts 127°
2026-02-18 16:03 43.98858 15.56199 35129 ft 551 kts 127°
2026-02-18 16:04 43.94283 15.64745 35132 ft 551 kts 127°
2026-02-18 16:04 43.89679 15.73273 35112 ft 552 kts 127°
2026-02-18 16:05 43.82757 15.86032 35147 ft 552 kts 128°
2026-02-18 16:05 43.78132 15.94530 35162 ft 552 kts 128°
2026-02-18 16:06 43.73572 16.02888 35163 ft 553 kts 128°
2026-02-18 16:06 43.68955 16.11327 35157 ft 554 kts 128°
2026-02-18 16:07 43.64301 16.19808 35161 ft 554 kts 128°
2026-02-18 16:07 43.59639 16.28279 35169 ft 554 kts 128°
2026-02-18 16:08 43.54970 16.36737 35149 ft 554 kts 128°
2026-02-18 16:08 43.50294 16.45183 35148 ft 553 kts 128°
2026-02-18 16:09 43.43274 16.57820 35161 ft 553 kts 128°
2026-02-18 16:10 43.38593 16.66216 35142 ft 553 kts 128°
2026-02-18 16:10 43.33937 16.74545 35193 ft 552 kts 128°
2026-02-18 16:11 43.29249 16.82904 35186 ft 553 kts 128°
2026-02-18 16:11 43.24545 16.91270 35190 ft 553 kts 128°
2026-02-18 16:12 43.19846 16.99605 35194 ft 552 kts 128°
2026-02-18 16:12 43.16037 17.06343 35201 ft 552 kts 128°
2026-02-18 16:13 43.08958 17.18826 35187 ft 552 kts 128°
2026-02-18 16:13 43.04244 17.27112 35193 ft 552 kts 128°
2026-02-18 16:14 42.99503 17.35345 35188 ft 552 kts 130°
2026-02-18 16:14 42.94618 17.43440 35198 ft 552 kts 130°
2026-02-18 16:15 42.89691 17.51504 35193 ft 553 kts 130°
2026-02-18 16:15 42.84773 17.59585 35169 ft 553 kts 130°
2026-02-18 16:16 42.79899 17.67611 35177 ft 553 kts 130°
2026-02-18 16:16 42.74992 17.75677 35198 ft 552 kts 130°
2026-02-18 16:17 42.67618 17.87749 35189 ft 552 kts 130°
2026-02-18 16:18 42.62699 17.95772 35194 ft 552 kts 131°
2026-02-18 16:18 42.57879 18.03612 35171 ft 552 kts 131°
2026-02-18 16:19 42.52991 18.11542 35196 ft 552 kts 131°
2026-02-18 16:19 42.48062 18.19517 35200 ft 552 kts 131°
2026-02-18 16:20 42.43125 18.27482 35200 ft 552 kts 131°
2026-02-18 16:20 42.38178 18.35444 35199 ft 552 kts 131°
2026-02-18 16:21 42.31052 18.46874 35194 ft 553 kts 131°
2026-02-18 16:21 42.26088 18.54809 35204 ft 553 kts 131°
2026-02-18 16:22 42.21112 18.62744 35206 ft 553 kts 131°
2026-02-18 16:22 42.16130 18.70667 35216 ft 554 kts 131°
2026-02-18 16:23 42.11143 18.78576 35234 ft 554 kts 131°
2026-02-18 16:23 42.06131 18.86504 35224 ft 555 kts 131°
2026-02-18 16:24 42.01121 18.94406 35220 ft 555 kts 131°
2026-02-18 16:24 41.96261 19.02054 35227 ft 555 kts 131°
2026-02-18 16:25 41.88731 19.13865 35241 ft 555 kts 131°
2026-02-18 16:26 41.83694 19.21742 35225 ft 556 kts 132°
2026-02-18 16:26 41.78654 19.29603 35220 ft 556 kts 132°
2026-02-18 16:27 41.73305 19.37042 35226 ft 553 kts 138°
2026-02-18 16:27 41.67746 19.44184 35219 ft 553 kts 138°
2026-02-18 16:28 41.62188 19.51319 35233 ft 554 kts 138°
2026-02-18 16:28 41.56638 19.58490 35229 ft 554 kts 138°
2026-02-18 16:29 41.48333 19.69229 35229 ft 554 kts 138°
2026-02-18 16:29 41.42829 19.76317 35222 ft 554 kts 138°
2026-02-18 16:30 41.37274 19.83450 35226 ft 554 kts 138°
2026-02-18 16:30 41.31716 19.90570 35231 ft 555 kts 138°
2026-02-18 16:31 41.26145 19.97687 35213 ft 555 kts 138°
2026-02-18 16:31 41.20722 20.04600 35209 ft 554 kts 138°
2026-02-18 16:32 41.15165 20.11670 35235 ft 553 kts 139°
2026-02-18 16:32 41.09609 20.18715 35235 ft 553 kts 139°
2026-02-18 16:33 41.01233 20.29300 35607 ft 556 kts 139°
2026-02-18 16:33 40.98463 20.32795 35977 ft 554 kts 139°
2026-02-18 16:34 40.95674 20.36311 36327 ft 552 kts 139°
2026-02-18 16:34 40.92925 20.39772 36666 ft 551 kts 139°
2026-02-18 16:34 40.90149 20.43261 36938 ft 551 kts 139°
2026-02-18 16:34 40.87360 20.46761 37042 ft 554 kts 139°
2026-02-18 16:35 40.84558 20.50272 37064 ft 555 kts 139°
2026-02-18 16:35 40.78970 20.57265 37054 ft 551 kts 139°
2026-02-18 16:36 40.73404 20.64216 37037 ft 549 kts 139°
2026-02-18 16:36 40.67863 20.71117 37053 ft 547 kts 139°
2026-02-18 16:37 40.59541 20.81449 37076 ft 549 kts 139°
2026-02-18 16:37 40.54003 20.88308 37032 ft 551 kts 139°
2026-02-18 16:38 40.48445 20.95254 37063 ft 552 kts 136°
2026-02-18 16:38 40.43575 21.02771 37034 ft 554 kts 129°
2026-02-18 16:39 40.38815 21.10719 37049 ft 554 kts 129°
2026-02-18 16:39 40.34032 21.18652 37050 ft 555 kts 129°
2026-02-18 16:40 40.29211 21.26545 37059 ft 555 kts 130°
2026-02-18 16:40 40.24368 21.34418 37045 ft 555 kts 130°
2026-02-18 16:41 40.17092 21.46212 37028 ft 555 kts 130°
2026-02-18 16:42 40.12240 21.54059 37018 ft 554 kts 130°
2026-02-18 16:42 40.07390 21.61886 37014 ft 554 kts 130°
2026-02-18 16:43 40.02571 21.69642 37033 ft 553 kts 130°
2026-02-18 16:43 39.97733 21.77410 37034 ft 553 kts 130°
2026-02-18 16:44 39.92873 21.85192 37024 ft 553 kts 130°
2026-02-18 16:44 39.88010 21.92961 37019 ft 553 kts 130°
2026-02-18 16:45 39.80848 22.04367 37018 ft 551 kts 130°
2026-02-18 16:45 39.75986 22.12086 37023 ft 552 kts 130°
2026-02-18 16:46 39.71138 22.19765 37042 ft 553 kts 130°
2026-02-18 16:46 39.66251 22.27486 37034 ft 554 kts 131°
2026-02-18 16:47 39.61351 22.35208 37046 ft 554 kts 131°
2026-02-18 16:47 39.56446 22.42919 37037 ft 554 kts 131°
2026-02-18 16:48 39.51531 22.50628 37023 ft 554 kts 131°
2026-02-18 16:48 39.46625 22.58304 37034 ft 553 kts 131°
2026-02-18 16:49 39.39281 22.69759 37034 ft 552 kts 131°
2026-02-18 16:50 39.34364 22.77405 36976 ft 552 kts 131°
2026-02-18 16:50 39.29447 22.85032 36971 ft 552 kts 131°
2026-02-18 16:51 39.24522 22.92654 36966 ft 552 kts 131°
2026-02-18 16:51 39.19670 23.00144 36991 ft 551 kts 131°
2026-02-18 16:52 39.14793 23.07656 37000 ft 551 kts 131°
2026-02-18 16:52 39.09872 23.15217 37020 ft 551 kts 131°
2026-02-18 16:53 39.02491 23.26524 37005 ft 552 kts 131°
2026-02-18 16:53 38.97555 23.34061 37006 ft 553 kts 131°
2026-02-18 16:54 38.90108 23.45404 36999 ft 553 kts 132°
2026-02-18 16:55 38.85146 23.52938 37012 ft 552 kts 132°
2026-02-18 16:55 38.81019 23.59190 37015 ft 552 kts 132°
2026-02-18 16:56 38.75243 23.67920 37014 ft 551 kts 132°
2026-02-18 16:56 38.71081 23.74199 36978 ft 550 kts 132°
2026-02-18 16:57 38.61192 23.89058 37018 ft 549 kts 132°
2026-02-18 16:58 38.56225 23.96499 37006 ft 549 kts 133°
2026-02-18 16:58 38.51396 24.03712 37017 ft 548 kts 133°
2026-02-18 16:59 38.46425 24.11121 37019 ft 549 kts 133°
2026-02-18 16:59 38.41450 24.18522 37014 ft 550 kts 133°
2026-02-18 17:00 38.33989 24.29586 37024 ft 551 kts 133°
2026-02-18 17:00 38.28989 24.36982 37036 ft 552 kts 133°
2026-02-18 17:01 38.21456 24.48090 37030 ft 552 kts 133°
2026-02-18 17:02 38.16430 24.55479 37033 ft 553 kts 133°
2026-02-18 17:02 38.11391 24.62872 37025 ft 553 kts 133°
2026-02-18 17:03 38.06355 24.70242 37036 ft 552 kts 133°
2026-02-18 17:03 38.01346 24.77556 37037 ft 552 kts 133°
2026-02-18 17:04 37.96321 24.84877 37036 ft 552 kts 133°
2026-02-18 17:04 37.91277 24.92209 37038 ft 551 kts 134°
2026-02-18 17:05 37.83812 25.03031 37054 ft 551 kts 134°
2026-02-18 17:05 37.78769 25.10321 37036 ft 551 kts 134°
2026-02-18 17:06 37.73723 25.17598 37045 ft 550 kts 134°
2026-02-18 17:06 37.68674 25.24862 37043 ft 550 kts 134°
2026-02-18 17:07 37.63647 25.32080 36975 ft 550 kts 134°
2026-02-18 17:07 37.58598 25.39314 37003 ft 549 kts 134°
2026-02-18 17:08 37.53543 25.46539 37004 ft 549 kts 134°
2026-02-18 17:08 37.48479 25.53760 37006 ft 550 kts 134°
2026-02-18 17:09 37.40871 25.64581 37024 ft 550 kts 135°
2026-02-18 17:10 37.35792 25.71785 37032 ft 551 kts 135°
2026-02-18 17:10 37.30706 25.78983 37020 ft 551 kts 135°
2026-02-18 17:11 37.25606 25.86184 37043 ft 551 kts 135°
2026-02-18 17:11 37.20507 25.93369 37042 ft 551 kts 135°
2026-02-18 17:12 37.15529 26.00367 37039 ft 552 kts 135°
2026-02-18 17:12 37.10380 26.07591 37042 ft 552 kts 135°
2026-02-18 17:13 37.02720 26.18312 37041 ft 553 kts 135°
2026-02-18 17:13 36.97649 26.25509 37028 ft 554 kts 132°
2026-02-18 17:14 36.93123 26.33339 37039 ft 556 kts 127°
2026-02-18 17:14 36.88718 26.41310 37052 ft 557 kts 127°
2026-02-18 17:15 36.84286 26.49267 37034 ft 557 kts 128°
2026-02-18 17:15 36.79822 26.57181 37022 ft 558 kts 128°
2026-02-18 17:16 36.75364 26.65039 37038 ft 557 kts 128°
2026-02-18 17:16 36.70878 26.72928 37019 ft 558 kts 128°
2026-02-18 17:17 36.64148 26.84744 37001 ft 557 kts 128°
2026-02-18 17:18 36.59659 26.92605 36980 ft 556 kts 129°
2026-02-18 17:18 36.55277 27.00259 37025 ft 556 kts 129°
2026-02-18 17:19 36.50804 27.08052 37032 ft 557 kts 129°
2026-02-18 17:19 36.46295 27.15893 37019 ft 558 kts 129°
2026-02-18 17:20 36.41768 27.23746 37011 ft 559 kts 129°
2026-02-18 17:20 36.37238 27.31587 37007 ft 559 kts 129°
2026-02-18 17:21 36.30815 27.42674 36996 ft 559 kts 129°
2026-02-18 17:21 36.26297 27.50451 36979 ft 558 kts 130°
2026-02-18 17:22 36.21757 27.58248 36968 ft 557 kts 130°
2026-02-18 17:22 36.17220 27.66021 36999 ft 557 kts 130°
2026-02-18 17:23 36.12674 27.73794 37011 ft 557 kts 130°
2026-02-18 17:23 36.08126 27.81549 37012 ft 557 kts 130°
2026-02-18 17:24 36.03565 27.89311 36998 ft 557 kts 130°
2026-02-18 17:24 35.99014 27.97039 37022 ft 557 kts 130°
2026-02-18 17:25 35.92308 28.08396 37010 ft 557 kts 131°
2026-02-18 17:26 35.87737 28.16116 37016 ft 557 kts 131°
2026-02-18 17:26 35.83162 28.23825 36983 ft 556 kts 131°
2026-02-18 17:27 35.78593 28.31506 37007 ft 555 kts 131°
2026-02-18 17:27 35.74023 28.39170 37010 ft 555 kts 131°
2026-02-18 17:28 35.69450 28.46825 37008 ft 555 kts 131°
2026-02-18 17:28 35.64897 28.54427 37008 ft 555 kts 131°
2026-02-18 17:29 35.58016 28.65888 37005 ft 555 kts 131°
2026-02-18 17:29 35.53429 28.73509 36997 ft 553 kts 132°
2026-02-18 17:30 35.48851 28.81096 36996 ft 553 kts 132°
2026-02-18 17:30 35.44273 28.88666 36981 ft 551 kts 132°
2026-02-18 17:31 35.39711 28.96196 36979 ft 549 kts 132°
2026-02-18 17:31 35.35253 29.03535 37000 ft 548 kts 132°
2026-02-18 17:32 35.30696 29.11022 36995 ft 548 kts 133°
2026-02-18 17:32 35.26166 29.18449 36998 ft 547 kts 133°
2026-02-18 17:33 35.19326 29.29634 36981 ft 547 kts 133°
2026-02-18 17:34 35.14755 29.37090 36994 ft 547 kts 133°
2026-02-18 17:34 35.10182 29.44531 36995 ft 547 kts 133°
2026-02-18 17:35 35.05604 29.51967 36980 ft 547 kts 133°
2026-02-18 17:35 35.01028 29.59384 36987 ft 546 kts 133°
2026-02-18 17:36 34.96484 29.66733 36994 ft 546 kts 133°
2026-02-18 17:36 34.91907 29.74119 36992 ft 545 kts 133°
2026-02-18 17:37 34.85043 29.85171 36987 ft 545 kts 133°
2026-02-18 17:37 34.80461 29.92531 36995 ft 545 kts 133°
2026-02-18 17:38 34.75730 29.99697 37000 ft 539 kts 140°
2026-02-18 17:38 34.70453 30.05597 37003 ft 528 kts 148°
2026-02-18 17:39 34.64762 30.11232 37001 ft 528 kts 148°
2026-02-18 17:39 34.59075 30.16891 36990 ft 528 kts 148°
2026-02-18 17:40 34.53414 30.22575 36993 ft 528 kts 148°
2026-02-18 17:40 34.47742 30.28283 36999 ft 529 kts 148°
2026-02-18 17:41 34.40196 30.35860 37007 ft 529 kts 148°
2026-02-18 17:42 34.34528 30.41534 36997 ft 529 kts 148°
2026-02-18 17:42 34.28858 30.47200 37009 ft 528 kts 148°
2026-02-18 17:43 34.23196 30.52848 37011 ft 527 kts 148°
2026-02-18 17:43 34.17535 30.58483 37012 ft 527 kts 148°
2026-02-18 17:44 34.11872 30.64111 37011 ft 527 kts 148°
2026-02-18 17:44 34.06217 30.69721 36993 ft 525 kts 148°
2026-02-18 17:45 33.97796 30.78057 37017 ft 524 kts 148°
2026-02-18 17:45 33.92163 30.83620 37021 ft 524 kts 148°
2026-02-18 17:46 33.86525 30.89177 37027 ft 523 kts 148°
2026-02-18 17:46 33.80891 30.94722 37030 ft 523 kts 149°
2026-02-18 17:47 33.75384 31.00132 36988 ft 522 kts 148°
2026-02-18 17:47 33.69764 31.05646 37013 ft 521 kts 148°
2026-02-18 17:48 33.64172 31.11121 37038 ft 521 kts 148°
2026-02-18 17:48 33.58545 31.16619 37035 ft 521 kts 148°
2026-02-18 17:49 33.50105 31.24850 37025 ft 521 kts 149°
2026-02-18 17:50 33.44477 31.30327 37015 ft 520 kts 149°
2026-02-18 17:50 33.38856 31.35789 37035 ft 519 kts 149°
2026-02-18 17:51 33.33244 31.41231 37045 ft 519 kts 149°
2026-02-18 17:51 33.27659 31.46637 37043 ft 519 kts 149°
2026-02-18 17:52 33.22045 31.52062 37043 ft 519 kts 149°
2026-02-18 17:52 33.16429 31.57481 37036 ft 518 kts 149°
2026-02-18 17:53 33.08013 31.65585 37052 ft 517 kts 149°
2026-02-18 17:53 33.02410 31.70968 37057 ft 518 kts 149°
2026-02-18 17:54 32.96805 31.76343 37054 ft 518 kts 149°
2026-02-18 17:54 32.91195 31.81715 37050 ft 518 kts 149°
2026-02-18 17:55 32.85574 31.87090 37059 ft 518 kts 149°
2026-02-18 17:55 32.79994 31.92416 37051 ft 517 kts 149°
2026-02-18 17:56 32.74376 31.97769 37055 ft 517 kts 149°
2026-02-18 17:56 32.68902 32.02977 37066 ft 517 kts 149°
2026-02-18 17:57 32.60440 32.10911 37067 ft 514 kts 152°
2026-02-18 17:58 32.54632 32.15808 37074 ft 511 kts 153°
2026-02-18 17:58 32.48804 32.20641 37074 ft 511 kts 153°
2026-02-18 17:59 32.43004 32.25525 37075 ft 512 kts 153°
2026-02-18 17:59 32.37200 32.30444 37084 ft 512 kts 152°
2026-02-18 18:00 32.31435 32.35323 37071 ft 513 kts 153°
2026-02-18 18:00 32.25626 32.40228 37088 ft 513 kts 153°
2026-02-18 18:01 32.16913 32.47567 37087 ft 512 kts 152°
2026-02-18 18:01 32.11108 32.52443 37084 ft 512 kts 152°
2026-02-18 18:02 32.05295 32.57317 37102 ft 512 kts 152°
2026-02-18 18:02 31.99497 32.62173 37085 ft 512 kts 153°
2026-02-18 18:03 31.93700 32.67024 37089 ft 511 kts 153°
2026-02-18 18:03 31.87947 32.71828 37083 ft 509 kts 153°
2026-02-18 18:04 31.82170 32.76645 37086 ft 508 kts 153°
2026-02-18 18:04 31.76387 32.81458 37096 ft 508 kts 153°
2026-02-18 18:05 31.67754 32.88630 37089 ft 509 kts 153°
2026-02-18 18:06 31.61972 32.93425 37080 ft 508 kts 153°
2026-02-18 18:06 31.56193 32.98211 37082 ft 509 kts 153°
2026-02-18 18:07 31.50549 33.02876 37086 ft 509 kts 153°
2026-02-18 18:07 31.44752 33.07662 37082 ft 510 kts 153°
2026-02-18 18:08 31.38940 33.12454 37081 ft 511 kts 153°
2026-02-18 18:08 31.32988 33.16778 37064 ft 502 kts 160°
2026-02-18 18:09 31.23750 33.22517 37075 ft 501 kts 160°
2026-02-18 18:09 31.17570 33.26363 37075 ft 502 kts 160°
2026-02-18 18:10 31.11415 33.30225 37069 ft 502 kts 160°
2026-02-18 18:10 31.05305 33.34067 37070 ft 502 kts 160°